HELSINKI-MALMI current weather conditions

sailwx.info

Wind from 350 at 3 knots

Air temperature 5.0° C
Visibility: greater than 5.4 NM
Dewpoint 4.0° C

Last reported at 2014-Oct-20 16:20 UTC.
Time now 2014-Oct-20 18:09 UTC

Location: N 60°15' E 025°03'.
View on Google Maps.

See reports from other nearby stations

  
Tides and Currents Weather Stations Pressure Air Temp Water Temp Dewpoint Dewpoint Depression Visibility Wind Speed Wind Dir Waves Ship Positions
date/time (UTC)wind fromknots sea level pressurealtimeterstation pressurevisibilityair tempwater tempwave heightnotes
2014-Oct-20 17:20 360 4 5.4 5.0
2014-Oct-20 16:50 350 4 5.4 5.0
2014-Oct-20 16:20 350 3 5.4 5.0
2014-Oct-20 15:50 350 3 5.4 5.0
2014-Oct-20 15:20 350 3 5.4 5.0
2014-Oct-20 14:50 360 4 5.4 5.0
2014-Oct-20 14:20 360 5 5.4 5.0
2014-Oct-20 13:50 330 8 5.4 5.0
2014-Oct-20 13:20 360 5 5.4 6.0
2014-Oct-20 12:50 350 6 5.4 6.0
2014-Oct-20 12:20 350 7 5.4 6.0
2014-Oct-20 11:50 350 6 5.4 6.0
2014-Oct-20 11:20 340 6 5.4 7.0
2014-Oct-20 10:50 340 7 5.4 7.0
2014-Oct-20 10:20 350 6 5.4 7.0
2014-Oct-20 09:50 340 7 2.7 7.0
2014-Oct-20 09:20 340 6 2.7 7.0
2014-Oct-20 08:50 340 5 2.7 8.0
2014-Oct-20 08:20 330 4 2.7 8.0
2014-Oct-20 07:50 320 4 0.8 7.0 Light drizzle. Mist.
2014-Oct-20 07:20 280 2 0.5 7.0 Fog.
2014-Oct-20 06:50 4.3 6.0
2014-Oct-20 06:20 5.4 6.0
2014-Oct-20 05:50 5.4 6.0
2014-Oct-20 05:20 5.4 5.0
2014-Oct-20 04:50 0.4 5.0 Fog.
2014-Oct-20 03:20 0.1 5.0 Fog.
2014-Oct-20 02:50 0.1 5.0 Fog.
2014-Oct-20 02:20 0.1 5.0 Fog.
2014-Oct-20 01:50 0.1 5.0 Fog.
2014-Oct-20 01:20 0.1 7.0 Fog.
2014-Oct-20 00:50 0.1 7.0 Fog.
2014-Oct-20 00:20 0.2 7.0 Fog.
2014-Oct-19 23:50 0.2 8.0 Fog.
2014-Oct-19 23:20 0.1 8.0 Fog.
2014-Oct-19 22:50 200 1 0.2 9.0 Patches of fog.
2014-Oct-19 22:20 0.2 8.0 Fog.
2014-Oct-19 21:50 0.1 9.0 Fog.
2014-Oct-19 21:20 180 1 0.1 9.0 Fog.
2014-Oct-19 20:50 0.1 9.0 Fog.
2014-Oct-19 20:20 230 1 1.110.0 Mist.
2014-Oct-19 19:50 3.810.0
2014-Oct-19 19:20 250 1 2.110.0 Light rain showers. Mist.
2014-Oct-19 18:50 230 2 1.610.0 Light rain. Mist.
2014-Oct-19 18:20 210 3 2.710.0
2014-Oct-19 17:50 200 2 2.710.0 Mist.
2014-Oct-19 17:20 220 2 1.510.0 Mist.
2014-Oct-19 16:50 230 2 2.110.0 Mist.
2014-Oct-19 16:20 220 4 0.310.0 Fog.
2014-Oct-19 15:50 220 3 0.310.0 Fog.
2014-Oct-19 15:20 220 3 0.510.0 Fog.
2014-Oct-19 14:50 210 4 1.010.0 Mist.
2014-Oct-19 14:20 200 5 1.0 9.0 Mist.
2014-Oct-19 13:50 180 5 1.1 9.0 Mist.
2014-Oct-19 13:20 170 5 1.9 8.0 Light rain showers. Mist.
2014-Oct-19 12:50 160 6 1.3 7.0 Light rain showers. Mist.
2014-Oct-19 12:20 160 8 1.5 6.0 Light rain showers. Mist.
2014-Oct-19 11:50 160 8 4.9 6.0
2014-Oct-19 11:20 160 10 2.7 6.0 Light rain.
2014-Oct-19 10:50 160 12 2.7 5.0 Light rain.
2014-Oct-19 10:20 160 12 gusting 22 5.4 5.0 Rain.
2014-Oct-19 09:50 160 12 4.3 5.0 Rain.
2014-Oct-19 09:20 160 12 2.7 5.0 Rain.
2014-Oct-19 08:50 150 11 2.7 5.0 Rain.
2014-Oct-19 08:20 160 13 4.3 6.0 Rain.
2014-Oct-19 07:50 160 12 4.9 6.0 Rain.
2014-Oct-19 07:20 170 11 4.9 6.0 Rain.
2014-Oct-19 06:50 170 13 5.4 5.0 Rain.
2014-Oct-19 06:20 180 14 5.4 6.0 Light rain.
2014-Oct-19 05:50 180 13 5.4 6.0 Light rain.
2014-Oct-19 05:20 180 13 gusting 24 4.3 6.0 Light rain.
2014-Oct-19 04:50 190 11 5.4 6.0 Light rain.
2014-Oct-19 04:20 190 14 5.4 6.0 Drizzle.
2014-Oct-19 03:50 170 9 5.4 6.0 Rain.
2014-Oct-19 03:20 160 8 3.8 5.0 Light rain.
2014-Oct-19 02:50 150 9 4.3 5.0 Light rain.
2014-Oct-19 02:20 160 7 4.3 4.0 Light rain showers.
2014-Oct-19 01:50 160 9 5.4 5.0 Light rain showers.
2014-Oct-19 01:20 170 9 5.4 6.0 Light rain showers.
2014-Oct-19 00:50 170 9 5.4 5.0 Light precipitation.
2014-Oct-19 00:20 180 10 5.4 5.0
2014-Oct-18 23:50 170 10 5.4 6.0
2014-Oct-18 23:20 150 4 5.4 4.0
2014-Oct-18 22:50 150 3 5.4 3.0
2014-Oct-18 22:20 110 2 5.4 1.0
2014-Oct-18 21:50 100 3 5.4-0.0
2014-Oct-18 21:20 5.4-0.0
2014-Oct-18 20:50 5.4-0.0
2014-Oct-18 20:20 040 1 5.4-0.0
2014-Oct-18 19:50 050 1 5.4-1.0
2014-Oct-18 19:20 5.4-1.0
2014-Oct-18 18:50 070 1 5.4-1.0
2014-Oct-18 18:20 5.4-2.0